| time (UTC) | temp F | wind direction | speed knots | gust knots | rain 1hr in | rain 24hr in | rain mn in | humidity % | barometer mb |
| 20260904213826 | 63 | 90 | 3.5 | 10.4 | 0.00 | 0.00 | 0.00 | 49 | 1010.5 |
| 20260904213319 | 62 | 92 | 3.5 | 10.4 | 0.00 | 0.00 | 0.00 | 49 | 1010.4 |
| 20260904213044 | 62 | 64 | 3.5 | 8.7 | 0.00 | 0.00 | 0.00 | 50 | 1010.4 |
| 20260904212307 | 62 | 173 | 3.5 | 8.7 | 0.00 | 0.00 | 0.00 | 51 | 1010.5 |
| 20260904211804 | 62 | 96 | 3.5 | 8.7 | 0.00 | 0.00 | 0.00 | 50 | 1010.4 |
| 20260904211300 | 62 | 152 | 3.5 | 8.7 | 0.00 | 0.00 | 0.00 | 50 | 1010.5 |
| 20260904210800 | 62 | 137 | 2.6 | 8.7 | 0.00 | 0.00 | 0.00 | 50 | 1010.5 |
| 20260904210541 | 62 | 116 | 3.5 | 8.7 | 0.00 | 0.00 | 0.00 | 51 | 1010.5 |
| 20260904205755 | 61 | 165 | 4.3 | 11.3 | 0.00 | 0.00 | 0.00 | 51 | 1010.5 |
| 20260904205255 | 61 | 133 | 4.3 | 11.3 | 0.00 | 0.00 | 0.00 | 51 | 1010.6 |
| 20260904204754 | 60 | 82 | 4.3 | 10.4 | 0.00 | 0.00 | 0.00 | 55 | 1010.5 |
| 20260904204254 | 59 | 124 | 4.3 | 10.4 | 0.00 | 0.00 | 0.00 | 56 | 1010.6 |
| 20260904203755 | 58 | 111 | 3.5 | 8.7 | 0.00 | 0.00 | 0.00 | 56 | 1010.6 |
| 20260904203255 | 58 | 143 | 3.5 | 8.7 | 0.00 | 0.00 | 0.00 | 55 | 1010.6 |
| 20260904202754 | 58 | 150 | 3.5 | 10.4 | 0.00 | 0.00 | 0.00 | 55 | 1010.6 |
| 20260904202255 | 58 | 200 | 4.3 | 10.4 | 0.00 | 0.00 | 0.00 | 54 | 1010.6 |
| 20260904201754 | 59 | 198 | 3.5 | 8.7 | 0.00 | 0.00 | 0.00 | 54 | 1010.7 |
| 20260904201254 | 59 | 148 | 3.5 | 10.4 | 0.00 | 0.00 | 0.00 | 55 | 1010.6 |
| 20260904200754 | 58 | 146 | 2.6 | 10.4 | 0.00 | 0.00 | 0.00 | 54 | 1010.8 |
| 20260904200254 | 58 | 142 | 3.5 | 10.4 | 0.00 | 0.00 | 0.00 | 55 | 1010.8 |
| 20260904200016 | 58 | 127 | 4.3 | 10.4 | 0.00 | 0.00 | 0.00 | 55 | 1010.9 |
| 20260904195754 | 58 | 127 | 4.3 | 10.4 | 0.00 | 0.00 | 0.00 | 55 | 1010.9 |
| 20260904195254 | 58 | 126 | 3.5 | 8.7 | 0.00 | 0.00 | 0.00 | 55 | 1011.0 |
| 20260904194751 | 58 | 117 | 3.5 | 8.7 | 0.00 | 0.00 | 0.00 | 54 | 1010.9 |
| 20260904194255 | 58 | 156 | 3.5 | 10.4 | 0.00 | 0.00 | 0.00 | 56 | 1011.0 |
| 20260904194017 | 57 | 169 | 4.3 | 10.4 | 0.00 | 0.00 | 0.00 | 57 | 1011.1 |
| 20260904193754 | 57 | 169 | 4.3 | 10.4 | 0.00 | 0.00 | 0.00 | 57 | 1011.1 |
| 20260904193252 | 57 | 136 | 3.5 | 9.6 | 0.00 | 0.00 | 0.00 | 57 | 1011.1 |
| 20260904193017 | 56 | 120 | 4.3 | 11.3 | 0.00 | 0.00 | 0.00 | 58 | 1011.1 |
| 20260904192253 | 56 | 147 | 5.2 | 11.3 | 0.00 | 0.00 | 0.00 | 57 | 1011.1 |
| 20260904191754 | 56 | 215 | 5.2 | 11.3 | 0.00 | 0.00 | 0.00 | 57 | 1011.1 |
| 20260904191337 | 56 | 207 | 4.3 | 11.3 | 0.00 | 0.00 | 0.00 | 59 | 1011.0 |
| 20260904191324 | 56 | 196 | 4.3 | 11.3 | 0.00 | 0.00 | 0.00 | 58 | 1011.0 |
| 20260904191053 | 57 | 212 | 4.3 | 13.0 | 0.00 | 0.00 | 0.00 | 59 | 1011.0 |
| 20260904185800 | 57 | 176 | 4.3 | 13.0 | 0.00 | 0.00 | 0.00 | 56 | 1011.0 |
| 20260904185256 | 57 | 156 | 4.3 | 9.6 | 0.00 | 0.00 | 0.00 | 56 | 1011.0 |
| 20260904184748 | 57 | 156 | 4.3 | 10.4 | 0.00 | 0.00 | 0.00 | 56 | 1011.0 |
| 20260904184248 | 58 | 198 | 4.3 | 10.4 | 0.00 | 0.00 | 0.00 | 55 | 1011.0 |
| 20260904183749 | 58 | 167 | 5.2 | 10.4 | 0.00 | 0.00 | 0.00 | 54 | 1010.9 |
| 20260904183249 | 58 | 144 | 4.3 | 10.4 | 0.00 | 0.00 | 0.00 | 53 | 1010.8 |
| 20260904182753 | 59 | 147 | 2.6 | 8.7 | 0.00 | 0.00 | 0.00 | 54 | 1010.7 |
| 20260904182509 | 59 | 211 | 2.6 | 10.4 | 0.00 | 0.00 | 0.00 | 55 | 1010.6 |
| 20260904182310 | 59 | 211 | 2.6 | 10.4 | 0.00 | 0.00 | 0.00 | 55 | 1010.6 |
| 20260904181745 | 59 | 198 | 2.6 | 10.4 | 0.00 | 0.00 | 0.00 | 55 | 1010.6 |
| 20260904181237 | 59 | 197 | 2.6 | 8.7 | 0.00 | 0.00 | 0.00 | 56 | 1010.6 |
| 20260904180730 | 58 | 146 | 3.5 | 8.7 | 0.00 | 0.00 | 0.00 | 55 | 1010.6 |
| 20260904180224 | 58 | 123 | 2.6 | 8.7 | 0.00 | 0.00 | 0.00 | 57 | 1010.5 |
| 20260904175720 | 57 | 127 | 0.9 | 4.3 | 0.00 | 0.00 | 0.00 | 59 | 1010.6 |
| 20260904175215 | 56 | 238 | 0.9 | 3.5 | 0.00 | 0.00 | 0.00 | 61 | 1010.7 |
| 20260904175210 | 55 | 326 | 0.9 | 2.6 | 0.00 | 0.00 | 0.00 | 61 | 1010.6 |
| 20260904174953 | 55 | 326 | 0.9 | 2.6 | 0.00 | 0.00 | 0.00 | 61 | 1010.6 |
| 20260904174200 | 55 | 326 | 1.7 | 3.5 | 0.00 | 0.00 | 0.00 | 61 | 1010.6 |
| 20260904173721 | 56 | 267 | 2.6 | 7.0 | 0.00 | 0.00 | 0.00 | 61 | 1010.4 |
| 20260904173708 | 55 | 325 | 1.7 | 6.1 | 0.00 | 0.00 | 0.00 | 61 | 1010.6 |
| 20260904172642 | 56 | 305 | 1.7 | 7.0 | 0.00 | 0.00 | 0.00 | 63 | 1010.5 |
| 20260904172136 | 56 | 310 | 1.7 | 3.5 | 0.00 | 0.00 | 0.00 | 62 | 1010.5 |
| 20260904171630 | 55 | 309 | 0.9 | 5.2 | 0.00 | 0.00 | 0.00 | 62 | 1010.6 |
| 20260904171124 | 56 | 286 | 0.0 | 5.2 | 0.00 | 0.00 | 0.00 | 61 | 1010.6 |
| 20260904170618 | 56 | 317 | 0.9 | 3.5 | 0.00 | 0.00 | 0.00 | 59 | 1010.5 |
| 20260904170112 | 56 | 317 | 0.9 | 3.5 | 0.00 | 0.00 | 0.00 | 61 | 1010.5 |
| 20260904165606 | 56 | 122 | 0.9 | 3.5 | 0.00 | 0.00 | 0.00 | 60 | 1010.5 |
| 20260904165100 | 55 | 125 | 0.9 | 3.5 | 0.00 | 0.00 | 0.00 | 63 | 1010.5 |
| 20260904164555 | 55 | 114 | 0.0 | 3.5 | 0.00 | 0.00 | 0.00 | 63 | 1010.5 |
| 20260904164053 | 54 | 24 | 0.0 | 2.6 | 0.00 | 0.00 | 0.00 | 63 | 1010.4 |
| 20260904163542 | 54 | 5 | 0.9 | 2.6 | 0.00 | 0.00 | 0.00 | 65 | 1010.3 |
| 20260904163036 | 53 | 355 | 0.9 | 2.6 | 0.00 | 0.00 | 0.00 | 66 | 1010.3 |
| 20260904162530 | 53 | 140 | 0.9 | 2.6 | 0.00 | 0.00 | 0.00 | 66 | 1010.2 |
| 20260904162024 | 52 | 140 | 0.0 | 2.6 | 0.00 | 0.00 | 0.00 | 68 | 1010.1 |
| 20260904161519 | 52 | 132 | 0.0 | 1.7 | 0.00 | 0.00 | 0.00 | 67 | 1010.2 |
| 20260904161012 | 52 | 125 | 0.0 | 2.6 | 0.00 | 0.00 | 0.00 | 67 | 1010.2 |
| 20260904160506 | 52 | 125 | 0.0 | 2.6 | 0.00 | 0.00 | 0.00 | 67 | 1010.2 |
| 20260904160000 | 52 | 124 | 0.9 | 2.6 | 0.00 | 0.00 | 0.00 | 67 | 1010.2 |
| 20260904155454 | 52 | 124 | 0.0 | 2.6 | 0.00 | 0.00 | 0.00 | 67 | 1010.1 |
| 20260904154948 | 51 | 124 | 0.0 | 2.6 | 0.00 | 0.00 | 0.00 | 67 | 1010.2 |
| 20260904154720 | 51 | 123 | 0.9 | 2.6 | 0.00 | 0.00 | 0.00 | 67 | 1010.2 |
| 20260904154213 | 51 | 124 | 0.9 | 2.6 | 0.00 | 0.00 | 0.00 | 68 | 1010.1 |
| 20260904153434 | 51 | 131 | 0.9 | 2.6 | 0.00 | 0.00 | 0.00 | 68 | 1010.3 |
| 20260904152926 | 51 | 134 | 0.9 | 2.6 | 0.00 | 0.00 | 0.00 | 67 | 1010.2 |
| 20260904152417 | 50 | 134 | 0.9 | 3.5 | 0.00 | 0.00 | 0.00 | 69 | 1010.3 |
| 20260904151912 | 50 | 134 | 1.7 | 3.5 | 0.00 | 0.00 | 0.00 | 70 | 1010.2 |
| 20260904151412 | 49 | 126 | 0.9 | 3.5 | 0.00 | 0.00 | 0.00 | 69 | 1010.1 |
| 20260904150912 | 49 | 144 | 1.7 | 4.3 | 0.00 | 0.00 | 0.00 | 69 | 1010.1 |
| 20260904150412 | 49 | 143 | 1.7 | 4.3 | 0.00 | 0.00 | 0.00 | 71 | 1009.9 |
| 20260904145912 | 48 | 178 | 1.7 | 4.3 | 0.00 | 0.00 | 0.00 | 71 | 1009.9 |
| 20260904145415 | 48 | 201 | 1.7 | 5.2 | 0.00 | 0.00 | 0.00 | 71 | 1009.7 |
| 20260904144912 | 47 | 146 | 1.7 | 5.2 | 0.00 | 0.00 | 0.00 | 73 | 1009.6 |
| 20260904144411 | 47 | 146 | 1.7 | 5.2 | 0.00 | 0.00 | 0.00 | 74 | 1009.5 |
| 20260904143912 | 46 | 139 | 1.7 | 5.2 | 0.00 | 0.00 | 0.00 | 75 | 1009.5 |
| 20260904143411 | 45 | 142 | 1.7 | 5.2 | 0.00 | 0.00 | 0.00 | 76 | 1009.4 |
| 20260904142912 | 45 | 144 | 2.6 | 5.2 | 0.00 | 0.00 | 0.00 | 77 | 1009.5 |
| 20260904142408 | 44 | 129 | 1.7 | 4.3 | 0.00 | 0.00 | 0.00 | 77 | 1009.5 |
| 20260904141907 | 44 | 146 | 0.9 | 4.3 | 0.00 | 0.00 | 0.00 | 78 | 1009.5 |
| 20260904141654 | 44 | 150 | 0.9 | 4.3 | 0.00 | 0.00 | 0.00 | 78 | 1009.3 |
| 20260904140909 | 44 | 150 | 0.9 | 4.3 | 0.00 | 0.00 | 0.00 | 78 | 1009.3 |
| 20260904140408 | 44 | 151 | 1.7 | 4.3 | 0.00 | 0.00 | 0.00 | 78 | 1009.3 |
| 20260904140148 | 44 | 149 | 2.6 | 6.1 | 0.00 | 0.00 | 0.00 | 79 | 1009.2 |
| 20260904135417 | 43 | 136 | 0.9 | 6.1 | 0.00 | 0.00 | 0.00 | 79 | 1009.2 |
| 20260904134919 | 43 | 144 | 0.9 | 2.6 | 0.00 | 0.00 | 0.00 | 80 | 1009.2 |
| 20260904134419 | 43 | 142 | 0.9 | 3.5 | 0.00 | 0.00 | 0.00 | 80 | 1009.1 |
| 20260904134138 | 43 | 142 | 1.7 | 3.5 | 0.00 | 0.00 | 0.00 | 80 | 1009.0 |
| 20260904133404 | 43 | 146 | 0.9 | 2.6 | 0.00 | 0.00 | 0.00 | 80 | 1008.9 |
| 20260904132906 | 43 | 146 | 0.0 | 1.7 | 0.00 | 0.00 | 0.00 | 79 | 1008.9 |
| 20260904132354 | 44 | 146 | 0.0 | 0.0 | 0.00 | 0.00 | 0.00 | 78 | 1008.7 |
| 20260904131845 | 44 | 146 | 0.0 | 0.0 | 0.00 | 0.00 | 0.00 | 78 | 1008.9 |
| 20260904131613 | 44 | 146 | 0.0 | 0.0 | 0.00 | 0.00 | 0.00 | 78 | 1008.9 |
| 20260904131104 | 44 | 146 | 0.0 | 0.0 | 0.00 | 0.00 | 0.00 | 78 | 1009.0 |
| 20260904130328 | 44 | 146 | 0.0 | 3.5 | 0.00 | 0.00 | 0.00 | 77 | 1009.0 |
| 20260904125822 | 44 | 146 | 0.9 | 3.5 | 0.00 | 0.00 | 0.00 | 77 | 1008.7 |
| 20260904125316 | 45 | 146 | 0.9 | 4.3 | 0.00 | 0.00 | 0.00 | 77 | 1008.7 |
| 20260904124811 | 45 | 146 | 1.7 | 4.3 | 0.00 | 0.00 | 0.00 | 77 | 1008.6 |
| 20260904124305 | 44 | 161 | 0.9 | 3.5 | 0.00 | 0.00 | 0.00 | 77 | 1008.7 |
| 20260904123800 | 44 | 150 | 0.9 | 3.5 | 0.00 | 0.00 | 0.00 | 78 | 1008.7 |
| 20260904123253 | 44 | 141 | 0.9 | 3.5 | 0.00 | 0.00 | 0.00 | 78 | 1008.7 |
| 20260904123019 | 44 | 152 | 0.9 | 2.6 | 0.00 | 0.00 | 0.00 | 78 | 1008.7 |
| 20260904122242 | 44 | 146 | 0.9 | 2.6 | 0.00 | 0.00 | 0.00 | 79 | 1008.7 |
| 20260904121733 | 44 | 146 | 0.9 | 2.6 | 0.00 | 0.00 | 0.00 | 78 | 1008.7 |
| 20260904121226 | 45 | 144 | 0.9 | 2.6 | 0.00 | 0.00 | 0.00 | 78 | 1008.6 |
| 20260904120721 | 45 | 144 | 0.9 | 3.5 | 0.00 | 0.00 | 0.00 | 79 | 1008.5 |
| 20260904120216 | 45 | 144 | 0.9 | 3.5 | 0.00 | 0.00 | 0.00 | 80 | 1008.5 |
| 20260904115941 | 45 | 142 | 0.9 | 3.5 | 0.00 | 0.00 | 0.00 | 80 | 1008.5 |
| 20260904115204 | 45 | 142 | 0.9 | 3.5 | 0.00 | 0.00 | 0.00 | 80 | 1008.5 |
| 20260904114703 | 45 | 140 | 0.9 | 3.5 | 0.00 | 0.00 | 0.00 | 80 | 1008.4 |
| 20260904114155 | 45 | 137 | 0.0 | 2.6 | 0.00 | 0.00 | 0.00 | 79 | 1008.4 |
| 20260904113646 | 45 | 137 | 0.9 | 2.6 | 0.00 | 0.00 | 0.00 | 80 | 1008.3 |
| 20260904113140 | 45 | 132 | 0.9 | 2.6 | 0.00 | 0.00 | 0.00 | 80 | 1008.3 |
| 20260904112636 | 45 | 128 | 0.9 | 2.6 | 0.00 | 0.00 | 0.00 | 80 | 1008.2 |
| 20260904112127 | 45 | 123 | 0.0 | 0.0 | 0.00 | 0.00 | 0.00 | 80 | 1008.2 |
| 20260904111858 | 45 | 123 | 0.0 | 0.0 | 0.00 | 0.00 | 0.00 | 79 | 1008.3 |
| 20260904111115 | 46 | 123 | 0.0 | 0.0 | 0.00 | 0.00 | 0.00 | 79 | 1008.1 |
| 20260904110611 | 46 | 123 | 0.0 | 0.0 | 0.00 | 0.00 | 0.00 | 79 | 1008.2 |
| 20260904110104 | 46 | 123 | 0.0 | 0.0 | 0.00 | 0.00 | 0.00 | 80 | 1008.1 |
| 20260904105600 | 46 | 123 | 0.0 | 1.7 | 0.00 | 0.00 | 0.00 | 80 | 1008.1 |
| 20260904105054 | 46 | 123 | 0.0 | 1.7 | 0.00 | 0.00 | 0.00 | 79 | 1008.1 |
| 20260904104545 | 46 | 122 | 0.9 | 3.5 | 0.00 | 0.00 | 0.00 | 79 | 1008.2 |
| 20260904104308 | 46 | 121 | 0.9 | 3.5 | 0.00 | 0.00 | 0.00 | 79 | 1008.1 |
| 20260904103534 | 46 | 114 | 0.0 | 2.6 | 0.00 | 0.00 | 0.00 | 79 | 1008.1 |
| 20260904103301 | 46 | 102 | 0.0 | 1.7 | 0.00 | 0.00 | 0.00 | 80 | 1008.1 |
| 20260904102521 | 46 | 95 | 0.0 | 0.9 | 0.00 | 0.00 | 0.00 | 80 | 1008.1 |
| 20260904102017 | 47 | 95 | 0.0 | 0.9 | 0.00 | 0.00 | 0.00 | 79 | 1008.0 |
| 20260904101510 | 47 | 95 | 0.0 | 3.5 | 0.00 | 0.00 | 0.00 | 78 | 1008.1 |
| 20260904101004 | 47 | 95 | 0.0 | 3.5 | 0.00 | 0.00 | 0.00 | 78 | 1007.9 |
| 20260904100500 | 47 | 76 | 0.0 | 0.9 | 0.00 | 0.00 | 0.00 | 78 | 1007.9 |
| 20260904095955 | 47 | 76 | 0.0 | 1.7 | 0.00 | 0.00 | 0.00 | 78 | 1007.9 |
| 20260904095445 | 47 | 76 | 0.0 | 1.7 | 0.00 | 0.00 | 0.00 | 78 | 1007.9 |
| 20260904094940 | 47 | 74 | 0.0 | 0.0 | 0.00 | 0.00 | 0.00 | 78 | 1007.8 |
| 20260904094433 | 47 | 74 | 0.0 | 1.7 | 0.00 | 0.00 | 0.00 | 78 | 1008.0 |
| 20260904094158 | 47 | 74 | 0.0 | 1.7 | 0.00 | 0.00 | 0.00 | 78 | 1008.0 |
| 20260904093422 | 47 | 74 | 0.0 | 1.7 | 0.00 | 0.00 | 0.00 | 78 | 1008.0 |
| 20260904092917 | 47 | 74 | 0.0 | 1.7 | 0.00 | 0.00 | 0.00 | 78 | 1008.0 |
| 20260904092401 | 47 | 74 | 0.0 | 1.7 | 0.00 | 0.00 | 0.00 | 78 | 1008.1 |
| 20260904092139 | 47 | 70 | 0.0 | 0.0 | 0.00 | 0.00 | 0.00 | 77 | 1008.0 |
| 20260904091638 | 47 | 70 | 0.0 | 0.0 | 0.00 | 0.00 | 0.00 | 77 | 1008.0 |
| 20260904090910 | 47 | 70 | 0.0 | 0.0 | 0.00 | 0.00 | 0.00 | 76 | 1008.1 |
| 20260904090641 | 47 | 70 | 0.0 | 0.9 | 0.00 | 0.00 | 0.00 | 76 | 1008.1 |
| 20260904085904 | 47 | 70 | 0.0 | 0.9 | 0.00 | 0.00 | 0.00 | 75 | 1008.0 |
| 20260904085403 | 48 | 70 | 0.0 | 0.9 | 0.00 | 0.00 | 0.00 | 75 | 1008.0 |
| 20260904085135 | 47 | 70 | 0.0 | 0.0 | 0.00 | 0.00 | 0.00 | 75 | 1008.0 |
| 20260904084403 | 47 | 70 | 0.0 | 0.0 | 0.00 | 0.00 | 0.00 | 75 | 1008.0 |
| 20260904083900 | 47 | 70 | 0.0 | 0.0 | 0.00 | 0.00 | 0.00 | 75 | 1008.0 |
| 20260904083405 | 47 | 70 | 0.0 | 0.0 | 0.00 | 0.00 | 0.00 | 75 | 1007.9 |
| 20260904082924 | 48 | 70 | 0.0 | 0.0 | 0.00 | 0.00 | 0.00 | 75 | 1007.9 |
| 20260904082920 | 48 | 70 | 0.0 | 0.0 | 0.00 | 0.00 | 0.00 | 75 | 1007.9 |
| 20260904081859 | 48 | 70 | 0.0 | 0.0 | 0.00 | 0.00 | 0.00 | 75 | 1007.9 |
| 20260904081400 | 48 | 70 | 0.0 | 0.0 | 0.00 | 0.00 | 0.00 | 75 | 1007.9 |
| 20260904080900 | 48 | 70 | 0.0 | 0.0 | 0.00 | 0.00 | 0.00 | 75 | 1007.9 |
| 20260904080358 | 48 | 70 | 0.0 | 0.0 | 0.00 | 0.00 | 0.00 | 76 | 1007.9 |
| 20260904075859 | 48 | 70 | 0.0 | 0.0 | 0.00 | 0.00 | 0.00 | 75 | 1007.9 |
| 20260904075359 | 48 | 70 | 0.0 | 0.9 | 0.00 | 0.00 | 0.00 | 76 | 1007.8 |
| 20260904074857 | 48 | 70 | 0.0 | 0.9 | 0.00 | 0.00 | 0.00 | 75 | 1007.9 |
| 20260904074355 | 48 | 70 | 0.0 | 0.0 | 0.00 | 0.00 | 0.00 | 75 | 1007.9 |
| 20260904073847 | 48 | 70 | 0.0 | 0.0 | 0.00 | 0.00 | 0.00 | 75 | 1007.8 |
| 20260904073340 | 49 | 70 | 0.0 | 0.9 | 0.00 | 0.00 | 0.00 | 75 | 1007.8 |
| 20260904072834 | 49 | 70 | 0.0 | 0.9 | 0.00 | 0.00 | 0.00 | 74 | 1007.7 |
| 20260904072327 | 49 | 70 | 0.0 | 2.6 | 0.00 | 0.00 | 0.00 | 74 | 1007.5 |
| 20260904071823 | 50 | 70 | 0.0 | 2.6 | 0.00 | 0.00 | 0.00 | 73 | 1007.5 |
| 20260904071316 | 50 | 331 | 0.0 | 0.9 | 0.00 | 0.00 | 0.00 | 73 | 1007.7 |
| 20260904070810 | 50 | 330 | 0.0 | 0.9 | 0.00 | 0.00 | 0.00 | 72 | 1007.7 |
| 20260904070305 | 50 | 330 | 0.0 | 0.9 | 0.00 | 0.00 | 0.00 | 72 | 1007.7 |
| 20260904070033 | 49 | 330 | 0.0 | 0.0 | 0.00 | 0.00 | 0.00 | 71 | 1007.8 |
| 20260904065255 | 49 | 330 | 0.0 | 0.0 | 0.00 | 0.00 | 0.00 | 72 | 1007.8 |
| 20260904064747 | 49 | 330 | 0.0 | 0.9 | 0.00 | 0.00 | 0.00 | 72 | 1007.8 |
| 20260904064243 | 49 | 330 | 0.0 | 0.0 | 0.00 | 0.00 | 0.00 | 72 | 1007.8 |
| 20260904063736 | 49 | 330 | 0.0 | 0.0 | 0.00 | 0.00 | 0.00 | 71 | 1007.7 |
| 20260904063458 | 49 | 330 | 0.0 | 0.0 | 0.00 | 0.00 | 0.00 | 71 | 1007.7 |
| 20260904062723 | 49 | 330 | 0.0 | 0.0 | 0.00 | 0.00 | 0.00 | 71 | 1007.7 |
| 20260904062217 | 49 | 330 | 0.0 | 0.0 | 0.00 | 0.00 | 0.00 | 71 | 1007.7 |
| 20260904061712 | 49 | 331 | 0.0 | 0.0 | 0.00 | 0.00 | 0.00 | 71 | 1007.7 |
| 20260904061208 | 50 | 331 | 0.0 | 0.0 | 0.00 | 0.00 | 0.00 | 70 | 1007.5 |
| 20260904060937 | 50 | 331 | 0.0 | 0.0 | 0.00 | 0.00 | 0.00 | 71 | 1007.5 |
| 20260904060154 | 50 | 331 | 0.0 | 0.0 | 0.00 | 0.00 | 0.00 | 71 | 1007.5 |
| 20260904055651 | 50 | 331 | 0.0 | 0.0 | 0.00 | 0.00 | 0.00 | 70 | 1007.7 |
| 20260904055143 | 51 | 331 | 0.0 | 0.0 | 0.00 | 0.00 | 0.00 | 70 | 1007.5 |
| 20260904054636 | 51 | 331 | 0.0 | 0.0 | 0.00 | 0.00 | 0.00 | 70 | 1007.5 |
| 20260904054130 | 51 | 331 | 0.0 | 0.0 | 0.00 | 0.00 | 0.00 | 70 | 1007.7 |
| 20260904053623 | 51 | 331 | 0.0 | 0.0 | 0.00 | 0.00 | 0.00 | 70 | 1007.7 |
| 20260904053121 | 51 | 331 | 0.0 | 0.0 | 0.00 | 0.00 | 0.00 | 69 | 1007.8 |
| 20260904052843 | 51 | 331 | 0.0 | 0.0 | 0.00 | 0.00 | 0.00 | 69 | 1007.8 |
| 20260904052110 | 51 | 331 | 0.0 | 0.0 | 0.00 | 0.00 | 0.00 | 69 | 1007.7 |
| 20260904051833 | 51 | 331 | 0.0 | 0.0 | 0.00 | 0.00 | 0.00 | 68 | 1007.7 |
| 20260904051110 | 51 | 331 | 0.0 | 1.7 | 0.00 | 0.00 | 0.00 | 68 | 1007.8 |
| 20260904051102 | 51 | 331 | 0.0 | 1.7 | 0.00 | 0.00 | 0.00 | 68 | 1007.8 |
| 20260904050041 | 52 | 330 | 0.9 | 3.5 | 0.00 | 0.00 | 0.00 | 68 | 1007.7 |
| 20260904045536 | 52 | 330 | 1.7 | 3.5 | 0.00 | 0.00 | 0.00 | 67 | 1007.7 |
| 20260904045030 | 52 | 329 | 1.7 | 5.2 | 0.00 | 0.01 | 0.00 | 67 | 1007.7 |
| 20260904044524 | 52 | 332 | 1.7 | 5.2 | 0.00 | 0.01 | 0.00 | 66 | 1007.4 |
| 20260904044018 | 52 | 338 | 1.7 | 6.1 | 0.00 | 0.01 | 0.00 | 66 | 1007.4 |
| 20260904043511 | 52 | 332 | 1.7 | 6.1 | 0.00 | 0.01 | 0.00 | 66 | 1007.5 |
| 20260904043021 | 53 | 311 | 2.6 | 5.2 | 0.00 | 0.01 | 0.00 | 66 | 1007.4 |
| 20260904043016 | 53 | 315 | 2.6 | 6.1 | 0.00 | 0.01 | 0.00 | 66 | 1007.4 |
| 20260904041955 | 53 | 337 | 1.7 | 5.2 | 0.00 | 0.01 | 0.00 | 65 | 1007.4 |
| 20260904041448 | 53 | 318 | 2.6 | 6.1 | 0.00 | 0.01 | 0.00 | 65 | 1007.4 |
| 20260904041215 | 53 | 315 | 2.6 | 6.1 | 0.00 | 0.01 | 0.00 | 65 | 1007.4 |
| 20260904040436 | 53 | 308 | 2.6 | 6.1 | 0.00 | 0.01 | 0.00 | 64 | 1007.4 |
| 20260904035930 | 53 | 290 | 3.5 | 7.8 | 0.00 | 0.01 | 0.00 | 64 | 1007.3 |
| 20260904035654 | 53 | 310 | 3.5 | 9.6 | 0.00 | 0.01 | 0.00 | 63 | 1007.4 |
| 20260904034918 | 53 | 307 | 2.6 | 9.6 | 0.00 | 0.01 | 0.00 | 63 | 1007.5 |
| 20260904034412 | 54 | 313 | 3.5 | 7.8 | 0.00 | 0.01 | 0.00 | 63 | 1007.4 |
| 20260904034130 | 54 | 309 | 3.5 | 7.8 | 0.00 | 0.01 | 0.00 | 62 | 1007.3 |
| 20260904033400 | 54 | 317 | 3.5 | 7.8 | 0.00 | 0.01 | 0.00 | 62 | 1007.2 |
| 20260904032854 | 54 | 284 | 2.6 | 8.7 | 0.00 | 0.01 | 0.00 | 62 | 1007.1 |
| 20260904032348 | 54 | 258 | 1.7 | 8.7 | 0.00 | 0.01 | 0.00 | 62 | 1006.9 |
| 20260904032116 | 54 | 314 | 1.7 | 6.1 | 0.00 | 0.01 | 0.00 | 61 | 1006.9 |
| 20260904031342 | 55 | 298 | 2.6 | 8.7 | 0.00 | 0.01 | 0.00 | 61 | 1006.6 |
| 20260904030842 | 55 | 307 | 3.5 | 10.4 | 0.00 | 0.01 | 0.00 | 61 | 1006.6 |
| 20260904030342 | 55 | 348 | 4.3 | 10.4 | 0.00 | 0.01 | 0.00 | 60 | 1006.6 |
| 20260904025841 | 55 | 321 | 4.3 | 8.7 | 0.00 | 0.01 | 0.00 | 59 | 1006.6 |
| 20260904025614 | 55 | 309 | 4.3 | 8.7 | 0.00 | 0.01 | 0.00 | 59 | 1006.6 |
| 20260904024841 | 55 | 292 | 3.5 | 8.7 | 0.00 | 0.01 | 0.00 | 58 | 1006.6 |
| 20260904024342 | 56 | 304 | 3.5 | 8.7 | 0.00 | 0.01 | 0.00 | 57 | 1006.6 |
| 20260904024123 | 56 | 309 | 3.5 | 8.7 | 0.00 | 0.01 | 0.00 | 56 | 1006.5 |
| 20260904023403 | 56 | 301 | 3.5 | 8.7 | 0.00 | 0.01 | 0.00 | 55 | 1006.5 |
| 20260904023359 | 56 | 324 | 3.5 | 8.7 | 0.00 | 0.01 | 0.00 | 56 | 1006.5 |
| 20260904022343 | 56 | 318 | 3.5 | 7.0 | 0.00 | 0.01 | 0.00 | 55 | 1006.4 |
| 20260904021842 | 56 | 342 | 3.5 | 7.8 | 0.00 | 0.01 | 0.00 | 55 | 1006.4 |
| 20260904021403 | 57 | 330 | 2.6 | 7.8 | 0.00 | 0.01 | 0.00 | 54 | 1006.4 |
| 20260904021357 | 57 | 325 | 2.6 | 7.8 | 0.00 | 0.01 | 0.00 | 55 | 1006.4 |
| 20260904020343 | 57 | 317 | 3.5 | 7.8 | 0.00 | 0.01 | 0.00 | 54 | 1006.4 |
| 20260904015841 | 57 | 298 | 3.5 | 7.8 | 0.00 | 0.01 | 0.00 | 53 | 1006.4 |
| 20260904015343 | 58 | 260 | 2.6 | 7.8 | 0.00 | 0.01 | 0.00 | 53 | 1006.4 |
| 20260904014841 | 58 | 312 | 2.6 | 8.7 | 0.00 | 0.01 | 0.00 | 52 | 1006.2 |
| 20260904014335 | 58 | 319 | 2.6 | 8.7 | 0.00 | 0.01 | 0.00 | 51 | 1006.4 |
| 20260904013829 | 58 | 340 | 1.7 | 7.8 | 0.00 | 0.01 | 0.00 | 50 | 1006.1 |
| 20260904013323 | 59 | 323 | 1.7 | 5.2 | 0.00 | 0.01 | 0.00 | 49 | 1006.1 |
| 20260904012816 | 59 | 326 | 1.7 | 7.0 | 0.00 | 0.01 | 0.00 | 48 | 1006.1 |
| 20260904012309 | 59 | 295 | 2.6 | 7.0 | 0.00 | 0.01 | 0.00 | 47 | 1006.1 |
| 20260904011803 | 60 | 325 | 2.6 | 7.0 | 0.00 | 0.02 | 0.00 | 47 | 1006.0 |
| 20260904011258 | 60 | 328 | 1.7 | 7.0 | 0.00 | 0.02 | 0.00 | 48 | 1006.0 |
| 20260904010751 | 60 | 331 | 0.9 | 7.0 | 0.00 | 0.02 | 0.00 | 47 | 1006.1 |
| 20260904010245 | 60 | 333 | 0.9 | 3.5 | 0.00 | 0.03 | 0.00 | 47 | 1006.1 |
| 20260904005739 | 60 | 338 | 1.7 | 4.3 | 0.00 | 0.04 | 0.00 | 47 | 1006.0 |
| 20260904005503 | 60 | 344 | 1.7 | 4.3 | 0.00 | 0.06 | 0.00 | 46 | 1006.0 |
| 20260904004727 | 61 | 347 | 1.7 | 3.5 | 0.00 | 0.07 | 0.00 | 45 | 1006.0 |
| 20260904004221 | 61 | 329 | 1.7 | 3.5 | 0.00 | 0.08 | 0.00 | 45 | 1006.0 |
| 20260904003719 | 62 | 301 | 0.9 | 3.5 | 0.00 | 0.08 | 0.00 | 45 | 1006.0 |
| 20260904003210 | 62 | 261 | 0.9 | 2.6 | 0.00 | 0.09 | 0.00 | 44 | 1006.1 |
| 20260904002702 | 63 | 148 | 0.0 | 1.7 | 0.00 | 0.09 | 0.00 | 43 | 1006.0 |
| 20260904002433 | 63 | 148 | 0.0 | 1.7 | 0.00 | 0.09 | 0.00 | 44 | 1006.0 |
| 20260904001651 | 62 | 148 | 0.0 | 2.6 | 0.00 | 0.09 | 0.00 | 45 | 1006.0 |
| 20260904001146 | 62 | 148 | 0.9 | 2.6 | 0.00 | 0.09 | 0.00 | 46 | 1006.1 |
| 20260904000639 | 62 | 166 | 0.9 | 4.3 | 0.00 | 0.09 | 0.00 | 45 | 1006.0 |
| 20260904000133 | 62 | 171 | 0.9 | 4.3 | 0.00 | 0.09 | 0.00 | 43 | 1006.1 |
| 20260903235628 | 63 | 174 | 0.9 | 3.5 | 0.00 | 0.10 | 0.00 | 45 | 1006.1 |
| 20260903235121 | 63 | 179 | 0.9 | 4.3 | 0.00 | 0.10 | 0.00 | 45 | 1006.1 |
| 20260903234619 | 64 | 149 | 0.9 | 4.3 | 0.00 | 0.11 | 0.00 | 43 | 1006.1 |
| 20260903234109 | 64 | 146 | 1.7 | 6.1 | 0.00 | 0.11 | 0.00 | 44 | 1006.1 |
| 20260903233603 | 64 | 241 | 0.9 | 6.1 | 0.00 | 0.11 | 0.00 | 43 | 1006.1 |
| 20260903233110 | 64 | 161 | 1.7 | 5.2 | 0.00 | 0.11 | 0.00 | 46 | 1006.1 |
| 20260903233105 | 64 | 166 | 0.9 | 5.2 | 0.00 | 0.11 | 0.00 | 44 | 1006.1 |
| 20260903232301 | 64 | 132 | 1.7 | 7.0 | 0.00 | 0.11 | 0.00 | 46 | 1006.2 |
| 20260903232049 | 64 | 132 | 1.7 | 7.0 | 0.00 | 0.11 | 0.00 | 46 | 1006.2 |
| 20260903231540 | 64 | 123 | 0.9 | 7.0 | 0.00 | 0.11 | 0.00 | 46 | 1006.2 |
| 20260903231038 | 63 | 109 | 0.9 | 3.5 | 0.00 | 0.11 | 0.00 | 48 | 1006.2 |
| 20260903230537 | 62 | 74 | 0.9 | 5.2 | 0.00 | 0.11 | 0.00 | 46 | 1006.4 |
| 20260903230320 | 62 | 76 | 1.7 | 5.2 | 0.00 | 0.11 | 0.00 | 47 | 1006.5 |
| 20260903225538 | 62 | 94 | 1.7 | 7.0 | 0.00 | 0.11 | 0.00 | 48 | 1006.6 |
| 20260903225038 | 62 | 146 | 2.6 | 7.0 | 0.00 | 0.11 | 0.00 | 47 | 1006.6 |
| 20260903224817 | 62 | 145 | 2.6 | 7.0 | 0.00 | 0.11 | 0.00 | 48 | 1006.7 |
| 20260903224314 | 62 | 114 | 1.7 | 7.0 | 0.00 | 0.11 | 0.00 | 47 | 1006.8 |
| 20260903223543 | 62 | 130 | 0.9 | 5.2 | 0.00 | 0.12 | 0.00 | 51 | 1006.9 |
| 20260903223038 | 61 | 84 | 0.9 | 3.5 | 0.00 | 0.12 | 0.00 | 51 | 1006.9 |
| 20260903222805 | 61 | 71 | 0.9 | 5.2 | 0.00 | 0.12 | 0.00 | 52 | 1007.0 |
| 20260903222036 | 60 | 42 | 0.9 | 5.2 | 0.00 | 0.12 | 0.00 | 54 | 1007.1 |
| 20260903221535 | 60 | 25 | 0.9 | 4.3 | 0.00 | 0.12 | 0.00 | 52 | 1007.1 |
| 20260903221036 | 60 | 26 | 0.9 | 4.3 | 0.00 | 0.12 | 0.00 | 51 | 1007.2 |
| 20260903220533 | 60 | 74 | 0.9 | 3.5 | 0.00 | 0.12 | 0.00 | 52 | 1007.2 |
| 20260903220033 | 60 | 60 | 0.9 | 5.2 | 0.00 | 0.12 | 0.00 | 52 | 1007.4 |
| 20260903215534 | 59 | 59 | 1.7 | 5.2 | 0.00 | 0.12 | 0.00 | 54 | 1007.5 |
| 20260903215032 | 59 | 92 | 1.7 | 5.2 | 0.00 | 0.12 | 0.00 | 53 | 1007.5 |
| 20260903214531 | 59 | 76 | 0.9 | 5.2 | 0.00 | 0.12 | 0.00 | 54 | 1007.8 |
| 20260903214039 | 59 | 66 | 0.9 | 3.5 | 0.00 | 0.12 | 0.00 | 55 | 1007.8 |